This demonstration page uses our WeatherBlox Daily Observations layout. Learn more.

Left ArrowRight Arrow

Hourly Observations for December 14, 2021

Temp ( °F °C ) Dew Point ( °F °C ) Humidity (%) Winds ( mph kmh ) Pressure ( in mb ) Visibility ( mi km ) Precip ( " mm )
12:53 am 00:53 Clear 29 -1.7 28 -2.2 96 96 E 5 7 29.64 1004 10 16 0.00 0.00
1:53 am 01:53 Clear 29 -1.7 28 -2.2 96 96 E 8 13 29.63 1003 10 16 0.00 0.00
2:53 am 02:53 Clear 29 -1.7 28 -2.2 96 96 E 8 13 29.61 1003 10 16 0.00 0.00
3:53 am 03:53 Clear 29 -1.7 28 -2.2 96 96 ENE 6 9 29.59 1002 10 16 0.00 0.00
4:53 am 04:53 Partly Cloudy 29 -1.7 28 -2.2 96 96 ESE 3 6 29.57 1002 10 16 0.00 0.00
5:53 am 05:53 Clear 28 -2.2 27 -2.8 96 96 WNW 6 9 29.59 1002 10 16 0.00 0.00
6:53 am 06:53 Clear 29 -1.7 27 -2.8 92 92 NNW 8 13 29.59 1002 10 16 0.00 0.00
7:10 am 07:10 Partly Cloudy 28 -2.2 26 -3.3 92 92 NW 13 20 29.65 1004 10 16 0.00 0.00
7:19 am 07:19 Mostly Cloudy 25 -3.9 22 -5.6 88 88 NW 18 30 29.68 1005 10 16 0.00 0.00
7:53 am 07:53 Cloudy with Mist and Fog 20 -6.7 17 -8.3 89 89 NW 13 20 29.65 1004 6 10 0.00 0.00
8:53 am 08:53 Cloudy with Mist and Fog 17 -8.3 15 -9.4 92 92 WNW 12 19 29.67 1005 4 6 0.00 0.00
9:53 am 09:53 Cloudy 16 -8.9 13 -10.6 88 88 NW 8 13 29.69 1005 7 11 0.00 0.00
10:53 am 10:53 Cloudy 17 -8.3 13 -10.6 84 84 NW 8 13 29.69 1006 7 11 0.00 0.00
11:53 am 11:53 Mostly Cloudy 17 -8.3 12 -11.1 80 80 WNW 9 15 29.69 1005 8 13 0.00 0.00
12:53 pm 12:53 Cloudy 19 -7.2 13 -10.6 77 77 W 8 13 29.66 1004 8 13 0.00 0.00
1:24 pm 13:24 Cloudy 19 -7 12 -11 73 73 W 8 13 29.75 1008 9 14 0.00 0.00
1:53 pm 13:53 Cloudy 19 -7.2 13 -10.6 77 77 W 9 15 29.66 1004 10 16 0.00 0.00
2:53 pm 14:53 Cloudy 20 -6.7 14 -10 78 78 WNW 13 20 29.67 1005 10 16 0.00 0.00
3:53 pm 15:53 Cloudy 19 -7.2 12 -11.1 74 74 WNW 9 15 29.70 1006 10 16 0.00 0.00
4:53 pm 16:53 Cloudy with Light Snow 18 -7.8 12 -11.1 77 77 WNW 10 17 29.72 1007 6 10 0.00 0.00
5:53 pm 17:53 Cloudy with Light Snow 17 -8.3 12 -11.1 80 80 WNW 15 24 29.73 1007 2 3 0.01 0.25
6:01 pm 18:01 Cloudy with Light Snow 17 -8.3 11 -11.7 77 77 NW 13 20 29.83 1010 2 3 0.00 0.00
6:06 pm 18:06 Cloudy with Light Snow 16 -8.9 11 -11.7 80 80 WNW 9 15 29.84 1010 1 2 0.00 0.00
6:19 pm 18:19 Cloudy with Light Snow 16 -8.9 11 -11.7 80 80 NW 13 20 29.84 1010 2 3 0.01 0.25
6:30 pm 18:30 Cloudy with Light Snow 16 -8.9 11 -11.7 80 80 WNW 13 20 29.85 1011 2 2 0.01 0.25
6:53 pm 18:53 Cloudy with Light Snow 16 -8.9 11 -11.7 80 80 WNW 8 13 29.74 1007 2 3 0.02 0.51
7:22 pm 19:22 Cloudy with Light Snow 16 -9 10 -12 79 79 NW 6 9 29.85 1011 2 3 0.00 0.00
7:34 pm 19:34 Cloudy with Light Snow 15 -9.4 11 -11.7 84 84 WNW 8 13 29.85 1011 3 4 0.01 0.25
7:48 pm 19:48 Cloudy with Light Snow 16 -9 10 -12 79 79 WNW 7 11 29.85 1011 3 5 0.01 0.25
7:53 pm 19:53 Cloudy with Light Snow 16 -8.9 11 -11.7 80 80 WNW 6 9 29.76 1008 4 6 0.01 0.25
8:29 pm 20:29 Cloudy with Light Snow 15 -9.4 10 -12.2 80 80 WNW 9 15 29.86 1011 2 3 0.00 0.00
8:42 pm 20:42 Cloudy with Light Snow 16 -9 10 -12 79 79 W 14 22 29.88 1012 3 5 0.00 0.00
8:47 pm 20:47 Cloudy with Light Snow 14 -10 9 -13 79 79 W 15 24 29.89 1012 2 3 0.00 0.00
8:50 pm 20:50 Cloudy with Light Snow 14 -10 9 -13 79 79 W 15 24 29.89 1012 1 2 0.00 0.00
8:53 pm 20:53 Cloudy with Light Snow 14 -10 10 -12.2 84 84 W 14 22 29.81 1010 1 1 0.01 0.25
9:09 pm 21:09 Cloudy with Light Snow 14 -10 11 -11.7 88 88 W 10 17 29.90 1012 2 2 0.02 0.51
9:19 pm 21:19 Cloudy with Light Snow 14 -10 10 -12.2 84 84 W 9 15 29.89 1012 3 4 0.02 0.51
9:26 pm 21:26 Cloudy with Light Snow 14 -10 10 -12.2 84 84 W 9 15 29.89 1012 3 5 0.02 0.51
9:36 pm 21:36 Cloudy with Light Snow 14 -10 10 -12.2 84 84 WNW 12 19 29.89 1012 5 8 0.02 0.51
9:53 pm 21:53 Cloudy 14 -10 8 -13.3 77 77 NW 12 19 29.80 1009 10 16 0.02 0.51
10:36 pm 22:36 Cloudy with Light Snow 13 -10.6 8 -13.3 81 81 W 10 17 29.92 1013 2 3 0.00 0.00
10:50 pm 22:50 Cloudy with Light Snow 12 -11 7 -14 79 79 W 12 19 29.92 1013 5 8 0.00 0.00
10:53 pm 22:53 Cloudy with Light Snow 14 -10 7 -13.9 73 73 W 9 15 29.83 1010 7 11 0.00 0.00
11:53 pm 23:53 Cloudy with Light Snow 13 -10.6 8 -13.3 81 81 WNW 6 9 29.82 1010 6 10 0.00 0.00

Powered by AerisWeather